Hyannis, MA

3:19 PM EDT on July 23, 2017 (GMT -0400)
Barnstable Municipal-Boardman-Polando Field

Weather History for KHYA - January, 2014

Change the Weather History Date:

Friday, January 24, 2014

  Actual Average Record
Temperature  
Mean Temperature 11 °F -  
Max Temperature 19 °F 40 °F 64 °F (1967)
Min Temperature 3 °F 21 °F -6 °F (1976)
Degree Days  
Heating Degree Days 54    
Moisture  
Dew Point -4 °F    
Average Humidity 51    
Maximum Humidity 73    
Minimum Humidity 31    
Precipitation  
Precipitation 0.00 in - - ()
Sea Level Pressure  
Sea Level Pressure 30.18 in    
Wind  
Wind Speed 8 mph (WNW)    
Max Wind Speed 17 mph    
Max Gust Speed 24 mph    
Visibility 10 miles    
Events      
Averages and records for this station are not official NWS values.
T = Trace of Precipitation, MM = Missing Value Source: NWS Daily Summary

Daily Weather History Graph

Daily Weather History Graph

Search for Another Location

Airport or City:

Trip Planner

Search our weather history database for the weather conditions in past years. The results will help you decide how hot, cold, wet, or windy it might be!

Date:

Astronomy

Jan. 24, 2014 Rise Set
Actual Time 7:00 AM EST 4:46 PM EST
Civil Twilight 6:30 AM EST 5:16 PM EST
Nautical Twilight 5:56 AM EST 5:50 PM EST
Astronomical Twilight 5:23 AM EST 6:23 PM EST
Moon 12:22 AM EST (1/24) 11:04 AM EST (1/24)
Length of Visible Light 10h 46m
Length of Day
9h 46m
Last Quarter, 45% of the Moon is Illuminated
Jan 24
Last Quarter
Jan 30
New
Feb 6
First Quarter
Feb 14
Full
Feb 22
Last Quarter

Hourly Weather History & Observations

Time (EST) Temp. Windchill Dew Point Humidity Pressure Visibility Wind Dir Wind Speed Gust Speed Precip Events Conditions
12:56 AM 12.0 °F -0.4 °F -2.9 °F 51% 30.16 in 10.0 mi West 9.2 mph - N/A   Clear
1:56 AM 12.0 °F 0.5 °F -2.9 °F 51% 30.16 in 10.0 mi West 8.1 mph - N/A   Clear
2:56 AM 10.9 °F -2.6 °F -2.0 °F 56% 30.16 in 10.0 mi West 10.4 mph - N/A   Clear
3:56 AM 10.9 °F -1.8 °F -2.0 °F 56% 30.15 in 10.0 mi West 9.2 mph 19.6 mph N/A   Clear
4:56 AM 10.0 °F -3.7 °F -2.9 °F 56% 30.17 in 10.0 mi WNW 10.4 mph - N/A   Clear
5:56 AM 9.0 °F -3.2 °F -4.0 °F 56% 30.19 in 10.0 mi West 8.1 mph - N/A   Clear
6:56 AM 8.1 °F -5.3 °F -4.0 °F 58% 30.21 in 10.0 mi WNW 9.2 mph - N/A   Clear
7:56 AM 9.0 °F -4.2 °F -5.1 °F 53% 30.22 in 10.0 mi WNW 9.2 mph - N/A   Clear
8:56 AM 10.9 °F -6.5 °F -6.0 °F 47% 30.23 in 10.0 mi NW 17.3 mph 21.9 mph N/A   Clear
9:56 AM 12.9 °F -1.6 °F -5.1 °F 45% 30.23 in 10.0 mi WNW 12.7 mph 24.2 mph N/A   Clear
10:56 AM 14.0 °F 1.2 °F -5.1 °F 43% 30.22 in 10.0 mi WNW 10.4 mph - N/A   Clear
11:56 AM 16.0 °F 1.7 °F -6.0 °F 38% 30.19 in 10.0 mi West 13.8 mph 18.4 mph N/A   Clear
12:56 PM 17.1 °F 6.6 °F -6.0 °F 36% 30.18 in 10.0 mi WNW 8.1 mph 18.4 mph N/A   Clear
1:56 PM 18.0 °F 8.7 °F -7.1 °F 33% 30.17 in 10.0 mi WNW 6.9 mph - N/A   Clear
2:56 PM 19.0 °F 8.2 °F -7.1 °F 31% 30.17 in 10.0 mi West 9.2 mph - N/A   Clear
3:56 PM 18.0 °F 6.1 °F -6.0 °F 35% 30.17 in 10.0 mi West 10.4 mph - N/A   Clear
4:56 PM 16.0 °F 6.3 °F -5.1 °F 39% 30.17 in 10.0 mi West 6.9 mph - N/A   Clear
5:56 PM 10.9 °F - -4.0 °F 51% 30.18 in 10.0 mi Calm Calm - N/A   Clear
6:56 PM 12.0 °F 4.1 °F -4.0 °F 49% 30.19 in 10.0 mi WSW 4.6 mph - N/A   Clear
7:56 PM 3.9 °F - -6.0 °F 64% 30.19 in 10.0 mi Calm Calm - N/A   Clear
8:56 PM 5.0 °F - -4.0 °F 66% 30.18 in 10.0 mi Calm Calm - N/A   Clear
9:56 PM 6.1 °F - -2.9 °F 67% 30.17 in 10.0 mi Calm Calm - N/A   Partly Cloudy
10:56 PM 8.1 °F - -0.9 °F 67% 30.14 in 10.0 mi Calm Calm - N/A   Partly Cloudy
11:56 PM 6.1 °F - -0.9 °F 73% 30.10 in 9.0 mi Calm Calm - N/A   Mostly Cloudy